This demonstration page uses our WeatherBlox Daily Observations layout. Learn more.

Left ArrowRight Arrow

Hourly Observations for February 9, 2017

Temp ( °F °C ) Dew Point ( °F °C ) Humidity (%) Winds ( mph kmh ) Pressure ( in mb ) Visibility ( mi km ) Precip ( " mm )
12:53 am 00:53 Cloudy 29 -1.7 25 -3.9 85 85 N 13 20 30.00 1016 10 16 N/A
1:51 am 01:51 Cloudy 28 -2 25 -4 86 86 NW 8 13 30.06 1018 10 16 N/A
1:53 am 01:53 Cloudy 28 -2.2 24 -4.4 85 85 NW 10 17 30.03 1017 10 16 N/A
2:53 am 02:53 Cloudy 28 -2.2 21 -6.1 75 75 NW 14 22 30.07 1018 10 16 N/A
3:53 am 03:53 Cloudy 28 -2.2 21 -6.1 75 75 NNW 14 22 30.07 1018 10 16 N/A
4:21 am 04:21 Cloudy 28 -2.2 20 -6.7 72 72 NW 12 19 30.12 1020 10 16 N/A
4:53 am 04:53 Cloudy 28 -2.2 21 -6.1 75 75 WNW 9 15 30.09 1019 10 16 N/A
5:09 am 05:09 Cloudy 28 -2.2 21 -6.1 75 75 WNW 13 20 30.12 1020 10 16 N/A
5:25 am 05:25 Cloudy 28 -2.2 20 -6.7 72 72 W 13 20 30.15 1021 10 16 N/A
5:53 am 05:53 Cloudy 27 -2.8 18 -7.8 69 69 WNW 13 20 30.14 1021 10 16 N/A
6:53 am 06:53 Cloudy 27 -2.8 19 -7.2 72 72 W 9 15 30.14 1021 10 16 N/A
7:45 am 07:45 Cloudy 25 -3.9 18 -7.8 75 75 WNW 12 19 30.18 1022 10 16 N/A
7:53 am 07:53 Cloudy 25 -3.9 16 -8.9 69 69 WNW 12 19 30.16 1022 10 16 N/A
8:53 am 08:53 Cloudy 23 -5 15 -9.4 72 72 WNW 16 26 30.20 1023 10 16 N/A
9:53 am 09:53 Cloudy 23 -5 15 -9.4 72 72 WNW 17 28 30.23 1024 10 16 N/A
10:53 am 10:53 Cloudy with Light Snow 22 -5.6 14 -10 71 71 WNW 16 26 30.27 1025 8 13 N/A
11:53 am 11:53 Cloudy 23 -5 13 -10.6 65 65 WNW 18 30 30.30 1026 10 16 N/A
12:53 pm 12:53 Mostly Cloudy 22 -5.6 11 -11.7 63 63 W 15 24 30.31 1027 10 16 N/A
1:53 pm 13:53 Mostly Sunny 24 -4.4 12 -11.1 60 60 WNW 17 28 30.32 1027 10 16 N/A
2:53 pm 14:53 Sunny 25 -3.9 11 -11.7 55 55 NW 17 28 30.34 1027 10 16 N/A
3:53 pm 15:53 Sunny 24 -4.4 7 -13.9 48 48 W 15 24 30.36 1028 10 16 N/A
4:53 pm 16:53 Sunny 24 -4.4 7 -13.9 48 48 WNW 15 24 30.37 1029 10 16 N/A
5:53 pm 17:53 Sunny 22 -5.6 6 -14.4 50 50 WNW 13 20 30.39 1029 10 16 N/A
6:53 pm 18:53 Clear 19 -7.2 8 -13.3 62 62 WNW 7 11 30.40 1030 10 16 N/A
7:53 pm 19:53 Clear 20 -6.7 7 -13.9 57 57 W 8 13 30.42 1030 10 16 N/A
8:53 pm 20:53 Clear 15 -9.4 7 -13.9 70 70 N N/A 30.43 1031 10 16 N/A
9:53 pm 21:53 Clear 13 -10.6 9 -12.8 84 84 N N/A 30.43 1031 10 16 N/A
10:53 pm 22:53 Clear 12 -11.1 9 -12.8 87 87 N N/A 30.43 1031 10 16 N/A
11:53 pm 23:53 Clear 13 -10.6 10 -12.2 88 88 N N/A 30.44 1031 10 16 N/A

Powered by AerisWeather